When you browse on this site, cookies collect data to enhance your experience and personalize the content and advertising you see.
Visit our Privacy Policy to learn more. By continuing to use the site, you agree to this use of cookies and data.
  • In Hungary
  • List of Countries
  • For 7 days
  • Water Temperature
  • Satellite Maps
  • Weather Map
  • News
  • Weather Widgets
  • user-avatar
    Login

    Hourly Weather Dziewin

    Today, 22 May, Wednesday

    Time Temperature Precipitation Wind Pressure Humidity
    00:00 +14°C° 0.7 mm 3 mps 744 mmHg 94%
    01:00 +14°C° 0 mm 4 mps 743 mmHg 95%
    02:00 +14°C° 0.9 mm 4 mps 744 mmHg 96%
    03:00 +14°C° 0.9 mm 5 mps 744 mmHg 96%
    04:00 +14°C° 0.9 mm 5 mps 744 mmHg 97%
    05:00 +14°C° 0.6 mm 6 mps 744 mmHg 96%
    06:00 +14°C° 0.6 mm 6 mps 744 mmHg 95%
    07:00 +14°C° 0 mm 5 mps 745 mmHg 95%
    08:00 +14°C° 0.6 mm 5 mps 745 mmHg 94%
    09:00 +14°C° 0.6 mm 6 mps 745 mmHg 94%
    10:00 +14°C° 0.6 mm 6 mps 746 mmHg 94%
    11:00 +14°C° 0.6 mm 7 mps 746 mmHg 94%
    12:00 +14°C° 0.6 mm 7 mps 746 mmHg 94%
    13:00 +12°C° 0.6 mm 7 mps 746 mmHg 94%
    14:00 +12°C° 0.1 mm 7 mps 747 mmHg 93%
    15:00 +12°C° 0.1 mm 7 mps 747 mmHg 93%
    16:00 +12°C° 0.1 mm 7 mps 747 mmHg 92%
    17:00 +12°C° 0.1 mm 7 mps 748 mmHg 92%
    18:00 +12°C° 0.1 mm 7 mps 748 mmHg 92%
    19:00 +12°C° 0.1 mm 7 mps 748 mmHg 92%
    20:00 +11°C° 0.1 mm 7 mps 749 mmHg 93%
    21:00 +11°C° 0.1 mm 6 mps 749 mmHg 93%
    22:00 +11°C° 0.1 mm 6 mps 749 mmHg 93%
    23:00 +11°C° 0.1 mm 6 mps 750 mmHg 93%

    Tomorrow, 23 May, Thursday

    Time Temperature Precipitation Wind Pressure Humidity
    00:00 +11°C° 0.1 mm 6 mps 750 mmHg 93%
    01:00 +10°C° 0.1 mm 6 mps 750 mmHg 93%
    02:00 +10°C° 0.1 mm 6 mps 750 mmHg 93%
    03:00 +10°C° 0.1 mm 6 mps 750 mmHg 93%
    04:00 +9°C° 0.1 mm 6 mps 751 mmHg 93%
    05:00 +9°C° 0.1 mm 6 mps 751 mmHg 93%
    06:00 +9°C° 0.1 mm 6 mps 751 mmHg 93%
    07:00 +9°C° 0.1 mm 6 mps 752 mmHg 92%
    08:00 +9°C° 0.1 mm 6 mps 752 mmHg 91%
    09:00 +9°C° 0.1 mm 6 mps 752 mmHg 89%
    10:00 +10°C° 0.1 mm 6 mps 753 mmHg 88%
    11:00 +12°C° 0 mm 5 mps 753 mmHg 80%
    12:00 +13°C° 0 mm 5 mps 753 mmHg 73%
    13:00 +15°C° 0 mm 5 mps 753 mmHg 66%
    14:00 +15°C° 0 mm 4 mps 752 mmHg 64%
    15:00 +17°C° 0 mm 4 mps 752 mmHg 62%
    16:00 +18°C° 0 mm 4 mps 752 mmHg 60%
    17:00 +17°C° 0 mm 3 mps 752 mmHg 64%
    18:00 +16°C° 0 mm 3 mps 752 mmHg 68%
    19:00 +16°C° 0 mm 2 mps 752 mmHg 72%
    20:00 +14°C° 0 mm 2 mps 752 mmHg 73%
    21:00 +13°C° 0 mm 2 mps 753 mmHg 75%
    22:00 +10°C° 0 mm 2 mps 753 mmHg 76%
    23:00 +9°C° 0 mm 2 mps 753 mmHg 77%

    Day after tomorrow, 24 May, Friday

    Time Temperature Precipitation Wind Pressure Humidity
    00:00 +9°C° 0 mm 2 mps 753 mmHg 78%
    01:00 +9°C° 0 mm 1 mps 753 mmHg 78%
    02:00 +9°C° 0 mm 1 mps 753 mmHg 79%
    03:00 +7°C° 0 mm 2 mps 752 mmHg 80%
    04:00 +7°C° 0 mm 2 mps 752 mmHg 82%
    05:00 +9°C° 0 mm 2 mps 752 mmHg 77%
    06:00 +12°C° 0 mm 2 mps 752 mmHg 73%
    07:00 +13°C° 0 mm 1 mps 752 mmHg 68%
    08:00 +15°C° 0 mm 1 mps 752 mmHg 64%
    09:00 +18°C° 0 mm 1 mps 752 mmHg 60%
    10:00 +20°C° 0 mm 1 mps 752 mmHg 56%
    11:00 +20°C° 0 mm 1 mps 751 mmHg 55%
    12:00 +21°C° 0 mm 1 mps 751 mmHg 54%
    13:00 +22°C° 0 mm 1 mps 751 mmHg 52%
    14:00 +22°C° 0 mm 1 mps 750 mmHg 52%
    15:00 +22°C° 0 mm 1 mps 750 mmHg 52%
    16:00 +22°C° 0 mm 1 mps 750 mmHg 52%
    17:00 +21°C° 0 mm 1 mps 749 mmHg 57%
    18:00 +20°C° 0 mm 1 mps 749 mmHg 62%
    19:00 +17°C° 0 mm 0 mps 749 mmHg 66%
    20:00 +18°C° 0 mm 1 mps 749 mmHg 69%
    21:00 +15°C° 0 mm 2 mps 749 mmHg 71%
    22:00 +14°C° 0 mm 2 mps 750 mmHg 74%
    23:00 +14°C° 0 mm 2 mps 749 mmHg 74%

    25 May, Saturday

    Time Temperature Precipitation Wind Pressure Humidity
    00:00 +14°C° 0 mm 2 mps 749 mmHg 74%
    01:00 +14°C° 0 mm 2 mps 749 mmHg 74%
    02:00 +12°C° 0 mm 3 mps 749 mmHg 79%
    03:00 +12°C° 0 mm 3 mps 749 mmHg 84%
    04:00 +11°C° 0 mm 3 mps 749 mmHg 89%
    05:00 +12°C° 0 mm 3 mps 749 mmHg 85%
    06:00 +13°C° 0 mm 3 mps 749 mmHg 82%
    07:00 +16°C° 0 mm 3 mps 750 mmHg 78%
    08:00 +17°C° 0.1 mm 3 mps 750 mmHg 74%
    09:00 +18°C° 0.1 mm 4 mps 750 mmHg 70%
    10:00 +20°C° 0.1 mm 4 mps 750 mmHg 65%
    11:00 +20°C° 0.3 mm 4 mps 750 mmHg 63%
    12:00 +21°C° 0.3 mm 4 mps 750 mmHg 62%
    13:00 +21°C° 0.3 mm 5 mps 749 mmHg 60%
    14:00 +21°C° 0 mm 5 mps 749 mmHg 57%
    15:00 +22°C° 0 mm 5 mps 749 mmHg 54%
    16:00 +22°C° 0 mm 4 mps 749 mmHg 51%
    17:00 +20°C° 0 mm 4 mps 749 mmHg 57%
    18:00 +19°C° 0 mm 3 mps 749 mmHg 63%
    19:00 +17°C° 0 mm 2 mps 749 mmHg 69%
    20:00 +15°C° 0 mm 2 mps 749 mmHg 75%
    21:00 +14°C° 0 mm 2 mps 750 mmHg 81%
    22:00 +12°C° 0 mm 1 mps 750 mmHg 88%
    23:00 +12°C° 0 mm 2 mps 750 mmHg 89%

    26 May, Sunday

    Time Temperature Precipitation Wind Pressure Humidity
    00:00 +10°C° 0 mm 2 mps 750 mmHg 91%
    01:00 +9°C° 0 mm 2 mps 750 mmHg 92%
    02:00 +9°C° 0 mm 2 mps 750 mmHg 92%
    03:00 +9°C° 0 mm 3 mps 750 mmHg 92%
    04:00 +9°C° 0 mm 3 mps 749 mmHg 92%
    05:00 +10°C° 0 mm 4 mps 749 mmHg 86%
    06:00 +11°C° 0 mm 4 mps 749 mmHg 81%
    07:00 +12°C° 0 mm 5 mps 749 mmHg 76%
    08:00 +13°C° 0 mm 6 mps 749 mmHg 71%
    09:00 +14°C° 0 mm 6 mps 749 mmHg 66%
    10:00 +15°C° 0 mm 6 mps 749 mmHg 60%
    11:00 +15°C° 0 mm 6 mps 749 mmHg 60%
    12:00 +15°C° 0 mm 6 mps 749 mmHg 59%
    13:00 +15°C° 0 mm 7 mps 749 mmHg 58%
    14:00 +15°C° 0 mm 7 mps 749 mmHg 57%
    15:00 +16°C° 0 mm 8 mps 748 mmHg 56%
    16:00 +16°C° 0 mm 8 mps 748 mmHg 55%
    17:00 +15°C° 0 mm 7 mps 748 mmHg 60%
    18:00 +14°C° 0 mm 6 mps 749 mmHg 66%
    19:00 +12°C° 0 mm 5 mps 749 mmHg 71%
    20:00 +11°C° 0 mm 4 mps 749 mmHg 76%
    21:00 +10°C° 0 mm 4 mps 749 mmHg 81%
    22:00 +9°C° 0 mm 3 mps 749 mmHg 87%
    23:00 +9°C° 0 mm 3 mps 750 mmHg 90%

    27 May, Monday

    Time Temperature Precipitation Wind Pressure Humidity
    00:00 +8°C° 0 mm 3 mps 750 mmHg 92%
    01:00 +8°C° 0 mm 3 mps 750 mmHg 95%
    02:00 +7°C° 0 mm 3 mps 750 mmHg 96%
    03:00 +7°C° 0 mm 2 mps 750 mmHg 96%
    04:00 +7°C° 0 mm 2 mps 749 mmHg 96%
    05:00 +8°C° 0 mm 2 mps 749 mmHg 90%
    06:00 +10°C° 0 mm 2 mps 749 mmHg 85%
    07:00 +13°C° 0 mm 2 mps 749 mmHg 80%
    08:00 +14°C° 0 mm 2 mps 749 mmHg 76%
    09:00 +16°C° 0 mm 2 mps 748 mmHg 72%
    10:00 +17°C° 0 mm 2 mps 748 mmHg 69%
    11:00 +19°C° 0 mm 2 mps 748 mmHg 64%
    12:00 +20°C° 0 mm 2 mps 747 mmHg 60%
    13:00 +23°C° 0 mm 2 mps 747 mmHg 56%
    14:00 +23°C° 0 mm 2 mps 746 mmHg 56%
    15:00 +23°C° 0 mm 2 mps 745 mmHg 57%
    16:00 +24°C° 0 mm 2 mps 745 mmHg 58%
    17:00 +21°C° 0.8 mm 2 mps 745 mmHg 66%
    18:00 +20°C° 0.8 mm 2 mps 744 mmHg 75%
    19:00 +18°C° 0.8 mm 2 mps 744 mmHg 83%
    20:00 +18°C° 0.1 mm 1 mps 744 mmHg 85%
    21:00 +16°C° 0.1 mm 1 mps 744 mmHg 87%
    22:00 +15°C° 0.1 mm 1 mps 744 mmHg 90%
    23:00 +14°C° 0 mm 1 mps 744 mmHg 91%
    Show more